DW5499 Weather Reports


time (UTC)temp
F
wind
direction
speed
knots
gust
knots
rain 1hr
in
rain 24hr
in
rain mn
in
humidity
%
barometer
mb
20260901080010 79 152 0.0 2.6 0.00 0.00 0.00 63 1012.9
20260901074507 79 141 0.9 2.6 0.00 0.00 0.00 63 1012.9
20260901073003 80 152 0.0 1.7 0.00 0.00 0.00 62 1013.1
20260901071559 81 158 0.0 1.7 0.00 0.00 0.00 59 1013.2
20260901070103 82 153 0.0 3.5 0.00 0.00 0.00 56 1013.2
20260901064556 82 181 1.7 4.3 0.00 0.00 0.00 56 1013.3
20260901063053 83 158 0.0 2.6 0.00 0.00 0.00 55 1013.3
20260901061552 83 147 1.7 5.2 0.00 0.00 0.00 54 1013.4
20260901060050 84 203 4.3 6.1 0.00 0.00 0.00 54 1013.4
20260901054548 84 170 2.6 6.1 0.00 0.00 0.00 53 1013.4
20260901053114 85 170 2.6 5.2 0.00 0.00 0.00 52 1013.4
20260901051601 85 180 2.6 5.2 0.00 0.00 0.00 52 1013.3
20260901050042 85 164 2.6 5.2 0.00 0.00 0.00 52 1013.2
20260901044553 85 163 1.7 6.1 0.00 0.00 0.00 53 1013.1
20260901043041 86 207 2.6 4.3 0.00 0.00 0.00 53 1013.0
20260901041541 86 193 1.7 4.3 0.00 0.00 0.00 53 1012.9
20260901040058 87 164 2.6 6.1 0.00 0.00 0.00 54 1012.8
20260901034553 87 141 0.9 4.3 0.00 0.00 0.00 56 1012.7
20260901033038 87 188 1.7 3.5 0.00 0.00 0.00 56 1012.6
20260901031538 87 184 0.9 3.5 0.00 0.00 0.00 60 1012.6
20260901030038 87 137 0.0 1.7 0.00 0.00 0.00 62 1012.4
20260901024545 88 137 0.0 1.7 0.00 0.00 0.00 61 1012.4
20260901023053 89 137 0.9 1.7 0.00 0.00 0.00 60 1012.2
20260901021537 89 128 0.0 2.6 0.00 0.00 0.00 58 1012.1
20260901020041 89 114 0.0 1.7 0.00 0.00 0.00 56 1011.9
20260901014549 91 122 0.0 1.7 0.00 0.00 0.00 56 1011.9
20260901013036 92 201 1.7 3.5 0.00 0.00 0.00 53 1011.7
20260901011535 92 190 1.7 3.5 0.00 0.00 0.00 51 1011.5
20260901010035 94 214 0.9 3.5 0.00 0.00 0.00 49 1011.5
20260901004536 95 203 2.6 4.3 0.00 0.00 0.00 46 1011.4
20260901003033 97 177 2.6 6.1 0.00 0.00 0.00 44 1011.4
20260901001532 98 178 2.6 7.8 0.00 0.00 0.00 43 1011.4
20260901000033 99 160 3.5 5.2 0.00 0.00 0.00 42 1011.4
20260831234533 99 173 3.5 7.0 0.00 0.00 0.00 41 1011.4
20260831233032 99 193 3.5 4.3 0.00 0.00 0.00 40 1011.3
20260831231531 100 181 2.6 5.2 0.00 0.00 0.00 39 1011.3
20260831230032 100 162 1.7 4.3 0.00 0.00 0.00 40 1011.3
20260831224530 99 261 2.6 5.2 0.00 0.00 0.00 41 1011.3
20260831223030 100 238 4.3 6.1 0.00 0.00 0.00 41 1011.3
20260831221529 100 218 1.7 7.8 0.00 0.00 0.00 40 1011.4
20260831220028 100 168 0.9 5.2 0.00 0.00 0.00 40 1011.4
20260831214527 99 231 4.3 8.7 0.00 0.00 0.00 40 1011.5
20260831213027 100 263 5.2 8.7 0.00 0.00 0.00 39 1011.5
20260831211524 99 245 4.3 7.0 0.00 0.00 0.00 42 1011.6
20260831210024 98 247 2.6 7.8 0.00 0.00 0.00 43 1011.8
20260831204521 98 210 4.3 9.6 0.00 0.00 0.00 42 1011.9
20260831203019 98 237 5.2 9.6 0.00 0.00 0.00 42 1012.0
20260831201519 98 235 3.5 11.3 0.00 0.00 0.00 42 1012.2
20260831200035 97 208 4.3 13.0 0.00 0.00 0.00 42 1012.2
20260831194517 97 208 5.2 11.3 0.00 0.00 0.00 43 1012.2
20260831193026 97 211 1.7 11.3 0.00 0.00 0.00 43 1012.2
20260831191515 97 185 4.3 14.8 0.00 0.00 0.00 43 1012.2
20260831190014 96 200 4.3 10.4 0.00 0.00 0.00 44 1012.3
20260831184512 95 222 8.7 14.8 0.00 0.00 0.00 45 1012.3
20260831183011 95 160 5.2 10.4 0.00 0.00 0.00 46 1012.3
20260831181509 94 229 7.0 11.3 0.00 0.00 0.00 48 1012.6
20260831180016 94 193 4.3 9.6 0.00 0.00 0.00 47 1012.7
20260831174519 93 230 6.1 11.3 0.00 0.00 0.00 47 1012.8
20260831173004 93 197 2.6 12.2 0.00 0.00 0.00 49 1012.8
20260831171504 91 222 3.5 11.3 0.00 0.00 0.00 50 1012.8
20260831170001 90 218 4.3 13.0 0.00 0.00 0.00 52 1012.9
20260831164622 90 236 5.2 10.4 0.00 0.00 0.00 52 1012.9
20260831163059 90 155 5.2 9.6 0.00 0.00 0.00 52 1013.0
20260831161557 88 164 4.3 12.2 0.00 0.00 0.00 54 1013.1
20260831160055 87 220 3.5 12.2 0.00 0.00 0.00 56 1013.0
20260831154559 85 201 7.8 13.9 0.00 0.00 0.00 57 1013.1
20260831153056 84 193 2.6 10.4 0.00 0.00 0.00 59 1013.1
20260831151557 84 226 4.3 11.3 0.00 0.00 0.00 59 1013.0
20260831150053 84 178 4.3 9.6 0.00 0.00 0.00 59 1012.9
20260831144606 83 237 5.2 10.4 0.00 0.00 0.00 60 1013.0
20260831143101 82 158 2.6 11.3 0.00 0.00 0.00 62 1013.2
20260831141600 80 199 5.2 10.4 0.00 0.00 0.00 63 1013.4
20260831140050 79 158 4.3 10.4 0.00 0.00 0.00 64 1013.3
20260831134554 79 162 4.3 9.6 0.00 0.00 0.00 63 1013.2
20260831133047 79 160 5.2 10.4 0.00 0.00 0.00 63 1013.1
20260831131546 79 170 4.3 11.3 0.00 0.00 0.00 62 1012.7
20260831130048 79 199 7.0 11.3 0.00 0.00 0.00 63 1012.9
20260831124545 79 199 7.0 13.9 0.00 0.00 0.00 63 1012.8
20260831123041 78 160 3.5 10.4 0.00 0.00 0.00 62 1012.7
20260831121540 78 174 6.1 10.4 0.00 0.00 0.00 62 1012.6
20260831120041 79 195 5.2 9.6 0.00 0.00 0.00 62 1012.4
20260831114537 79 182 2.6 7.8 0.00 0.00 0.00 61 1012.4
20260831113034 79 144 7.0 13.9 0.00 0.00 0.00 61 1012.0
20260831111537 79 173 4.3 11.3 0.00 0.00 0.00 61 1012.2
20260831110030 79 190 5.2 11.3 0.00 0.00 0.00 60 1012.1
20260831104540 80 164 4.3 9.6 0.00 0.00 0.00 59 1012.0
20260831103025 80 139 5.2 9.6 0.00 0.00 0.00 58 1011.9
20260831101523 80 170 3.5 8.7 0.00 0.00 0.00 57 1011.7
20260831100021 81 187 2.6 6.1 0.00 0.00 0.00 57 1011.7
20260831094521 81 166 4.3 6.1 0.00 0.00 0.00 56 1011.5
20260831093031 81 207 2.6 10.4 0.00 0.00 0.00 56 1011.2
20260831091517 81 203 6.1 12.2 0.00 0.00 0.00 56 1011.2
20260831090014 82 170 5.2 11.3 0.00 0.00 0.00 55 1011.1
20260831084514 82 158 4.3 11.3 0.00 0.00 0.00 54 1011.1
20260831083010 83 147 3.5 7.8 0.00 0.00 0.00 54 1011.0
20260831081509 83 161 3.5 7.8 0.00 0.00 0.00 53 1011.0